Location: Azalea Creek
(37.1280°N, 119.2623°W)
Time: 02:30:54
(UTC+00:00)

STARLINK-78 - Pass Details

Date: 17 February 2020
Orbit: 529 x 530 km, 53.0° (Epoch: 05 April)

Event Time Altitude Azimuth Distance (km) Brightness Sun altitude
Rises 03:11:16 0° 228° (SW) 2,651 7.9 -19.3°
Reaches altitude 10° 03:13:28 10° 229° (SW) 1,766 6.9 -19.7°
Maximum altitude 03:17:28 83° 317° (NW) 537 3.5 -20.5°
Enters shadow 03:18:19 55° 37° (NE) 643 3.7 -20.7°
